Weather History for Millville, NJ

Change the Weather History Date:

Tuesday, October 2, 2012

  Actual Average Record
Temperature  
Mean Temperature 68 °F -  
Max Temperature 75 °F 71 °F 86 °F (1952)
Min Temperature 62 °F 51 °F 32 °F (1997)
Cooling Degree Days 4    
Growing Degree Days 18 (Base 50)    
Moisture  
Dew Point 67 °F    
Average Humidity 90    
Maximum Humidity 100    
Minimum Humidity 73    
Precipitation  
Precipitation 0.41 in - - ()
Sea Level Pressure  
Sea Level Pressure 29.95 in    
Wind  
Wind Speed 4 mph (SE)    
Max Wind Speed 14 mph    
Max Gust Speed 40 mph    
Visibility 7 miles    
Events Rain    
Averages and records for this station are not official NWS values.
T = Trace of Precipitation, MM = Missing Value Source: NWS Daily Summary

Daily Weather History Graph

Daily Weather History Graph

Search for Another Location

Airport:

Trip Planner

Search our weather history database for the weather conditions in past years. The results will help you decide how hot, cold, wet, or windy it might be!

Date:

Astronomy

Oct. 02, 2012 Rise Set
Actual Time 6:57 AM EDT 6:40 PM EDT
Civil Twilight 6:31 AM EDT 7:07 PM EDT
Nautical Twilight 5:59 AM EDT 7:38 PM EDT
Astronomical Twilight 5:28 AM EDT 8:09 PM EDT
Moon 7:53 PM EDT (10/2) 9:21 AM EDT (10/2)
Length of Visible Light 12h 36m
Length of Day
11h 42m
Waning Gibbous, 94% of the Moon is Illuminated
Oct 2
Waning Gibbous
Oct 8
Last Quarter
Oct 15
New
Oct 21
First Quarter
Oct 29
Full

Hourly Weather History & Observations

Time (EDT) Temp. Dew Point Humidity Pressure Visibility Wind Dir Wind Speed Gust Speed Precip Events Conditions
12:54 AM 62.1 °F 59.0 °F 90% 29.98 in 10.0 mi Calm Calm - N/A   Overcast
1:54 AM 63.0 °F 59.0 °F 87% 29.97 in 10.0 mi Calm Calm - N/A   Overcast
2:54 AM 63.0 °F 57.9 °F 84% 29.96 in 10.0 mi ENE 3.5 mph - N/A   Overcast
4:12 AM 62.6 °F 57.2 °F 82% 29.96 in 10.0 mi Calm Calm - N/A   Overcast
4:54 AM 64.0 °F 57.9 °F 80% 29.97 in 10.0 mi Calm Calm - N/A   Overcast
5:54 AM 64.0 °F 57.9 °F 80% 29.97 in 10.0 mi Calm Calm - N/A   Overcast
6:54 AM 64.0 °F 59.0 °F 84% 29.96 in 10.0 mi East 6.9 mph - N/A   Overcast
7:20 AM 64.4 °F 59.0 °F 83% 29.97 in 10.0 mi East 5.8 mph - N/A   Overcast
7:54 AM 64.9 °F 60.1 °F 84% 29.97 in 10.0 mi ESE 8.1 mph - N/A   Overcast
8:54 AM 68.0 °F 61.0 °F 78% 29.97 in 10.0 mi ESE 10.4 mph - N/A   Overcast
9:54 AM 71.1 °F 63.0 °F 75% 29.97 in 10.0 mi SE 11.5 mph - N/A   Overcast
10:54 AM 72.0 °F 64.9 °F 78% 29.97 in 10.0 mi SE 13.8 mph - N/A   Overcast
11:54 AM 75.0 °F 66.9 °F 76% 29.95 in 10.0 mi ESE 8.1 mph - N/A   Overcast
12:05 PM 75.2 °F 66.2 °F 73% 29.96 in 10.0 mi ESE 11.5 mph - N/A   Overcast
12:36 PM 71.6 °F 68.0 °F 88% 29.97 in 0.8 mi SE 8.1 mph - 0.22 in Rain Heavy Rain
12:47 PM 71.6 °F 69.8 °F 94% 29.96 in 1.0 mi SE 5.8 mph 40.3 mph 0.33 in Rain Rain
12:54 PM 71.1 °F 69.1 °F 93% 29.95 in 1.8 mi ESE 5.8 mph - 0.34 in Rain Light Rain
1:00 PM 71.6 °F 69.8 °F 94% 29.95 in 1.0 mi ESE 6.9 mph - 0.04 in Rain Heavy Rain
1:06 PM 71.6 °F 69.8 °F 94% 29.95 in 0.8 mi ESE 8.1 mph - 0.05 in Rain Rain
1:12 PM 69.8 °F 69.8 °F 100% 29.95 in 2.0 mi ESE 6.9 mph - 0.06 in Rain Light Rain
1:21 PM 71.6 °F 69.8 °F 94% 29.94 in 6.0 mi ESE 6.9 mph - 0.06 in   Overcast
1:54 PM 71.1 °F 70.0 °F 96% 29.93 in 9.0 mi ESE 4.6 mph - 0.06 in   Overcast
2:28 PM 71.6 °F 71.6 °F 100% 29.93 in 7.0 mi SE 6.9 mph - 0.00 in Rain Light Rain
2:54 PM 73.0 °F 71.1 °F 93% 29.92 in 5.0 mi SSE 5.8 mph - 0.00 in   Overcast
3:54 PM 73.0 °F 72.0 °F 96% 29.91 in 4.0 mi SSE 4.6 mph - 0.01 in Rain Light Rain
4:54 PM 75.0 °F 73.0 °F 94% 29.91 in 7.0 mi SE 5.8 mph - 0.00 in   Overcast
5:54 PM 73.9 °F 72.0 °F 93% 29.91 in 7.0 mi SSE 5.8 mph - N/A   Overcast
6:54 PM 73.0 °F 71.1 °F 93% 29.92 in 9.0 mi Calm Calm - N/A   Overcast
7:09 PM 71.6 °F 71.6 °F 100% 29.93 in 9.0 mi SE 4.6 mph - N/A   Mostly Cloudy
7:41 PM 71.6 °F 69.8 °F 94% 29.94 in 8.0 mi ESE 3.5 mph - N/A   Mostly Cloudy
7:51 PM 71.6 °F 69.8 °F 94% 29.94 in 8.0 mi SE 3.5 mph - N/A   Mostly Cloudy
8:11 PM 71.6 °F 69.8 °F 94% 29.94 in 7.0 mi Calm Calm - N/A   Overcast
8:54 PM 72.0 °F 71.1 °F 97% 29.95 in 6.0 mi Calm Calm - 0.00 in Rain Light Rain
10:54 PM 72.0 °F 71.1 °F 97% 29.96 in 3.0 mi Variable 3.5 mph - N/A   Overcast
11:37 PM 71.6 °F 71.6 °F 100% 29.96 in 2.5 mi Calm Calm - N/A   Overcast
11:54 PM 72.0 °F 71.1 °F 97% 29.96 in 1.5 mi Calm Calm - N/A   Overcast